Sturgeon Bay, WI

1:05 AM CST on November 12, 2019 (GMT -0600)
Door County Cherryland

Weather History for KSUE - October, 2019

Change the Weather History Date:

Sunday, October 20, 2019

  Actual Average Record
Temperature  
Mean Temperature 51 °F -  
Max Temperature 61 °F 54 °F 80 °F (1920)
Min Temperature 42 °F 37 °F 23 °F (1946)
Degree Days  
Heating Degree Days 14    
Growing Degree Days 1 (Base 50)    
Moisture  
Dew Point 45 °F    
Average Humidity 93    
Maximum Humidity 100    
Minimum Humidity 57    
Precipitation  
Precipitation 0.00 in - - ()
Sea Level Pressure  
Sea Level Pressure 29.90 in    
Wind  
Wind Speed 4 mph (South)    
Max Wind Speed 9 mph    
Max Gust Speed -    
Visibility 5 miles    
Events Fog    
Averages and records for this station are not official NWS values.
T = Trace of Precipitation, MM = Missing Value Source: NWS Daily Summary

Daily Weather History Graph

Daily Weather History Graph

Search for Another Location

Airport or City:

Astronomy

Oct. 20, 2019 Rise Set
Actual Time 7:11 AM CDT 5:56 PM CDT
Civil Twilight 6:41 AM CDT 6:26 PM CDT
Nautical Twilight 6:07 AM CDT 7:00 PM CDT
Astronomical Twilight 5:33 AM CDT 7:34 PM CDT
Moon 10:55 PM CDT (10/20) 1:49 PM CDT (10/20)
Length of Visible Light 11h 44m
Length of Day
10h 45m
Waning Gibbous, 59% of the Moon is Illuminated
Oct 20
Waning Gibbous
Oct 21
Last Quarter
Oct 27
New
Nov 4
First Quarter
Nov 12
Full

Hourly Weather History & Observations

Time (CDT) Temp. Windchill Dew Point Humidity Pressure Visibility Wind Dir Wind Speed Gust Speed Precip Events Conditions
12:20 AM 50.0 °F - 48.2 °F 94% 29.75 in 5.0 mi Calm Calm - N/A   Overcast
12:37 AM 50.0 °F - 48.2 °F 94% 29.75 in 5.0 mi WSW 3.5 mph - N/A   Overcast
12:56 AM 48.9 °F - 48.9 °F 100% 29.75 in 4.0 mi West 3.5 mph - N/A   Overcast
1:28 AM 50.0 °F - 48.2 °F 94% 29.75 in 6.0 mi West 4.6 mph - N/A   Overcast
1:56 AM 50.0 °F - 48.9 °F 96% 29.76 in 8.0 mi West 4.6 mph - N/A   Overcast
2:36 AM 48.2 °F - 48.2 °F 100% 29.76 in 10.0 mi WNW 9.2 mph - N/A   Overcast
2:56 AM 48.9 °F - 46.9 °F 93% 29.77 in 10.0 mi WNW 6.9 mph - N/A   Overcast
3:56 AM 48.0 °F - 46.9 °F 96% 29.79 in 10.0 mi WNW 8.1 mph - N/A   Overcast
4:56 AM 48.0 °F - 46.0 °F 93% 29.81 in 10.0 mi West 4.6 mph - N/A   Overcast
5:56 AM 46.9 °F - 46.0 °F 97% 29.84 in 10.0 mi West 5.8 mph - N/A   Overcast
6:56 AM 46.9 °F - 46.0 °F 97% 29.84 in 10.0 mi West 6.9 mph - N/A   Overcast
7:56 AM 46.9 °F - 45.0 °F 93% 29.86 in 10.0 mi West 6.9 mph - N/A   Overcast
8:56 AM 46.9 °F - 45.0 °F 93% 29.89 in 10.0 mi West 8.1 mph - N/A   Overcast
9:56 AM 46.9 °F - 45.0 °F 93% 29.91 in 10.0 mi West 6.9 mph - N/A   Overcast
10:56 AM 48.9 °F - 46.0 °F 90% 29.92 in 10.0 mi Variable 4.6 mph - N/A   Overcast
11:54 AM 53.6 °F - 46.4 °F 77% 29.92 in 10.0 mi SW 3.5 mph - N/A   Partly Cloudy
11:56 AM 53.1 °F - 46.9 °F 80% 29.93 in 5.0 mi Calm Calm - N/A   Haze
12:56 PM 55.9 °F - 48.0 °F 75% 29.91 in 10.0 mi NNE 4.6 mph - N/A   Clear
1:56 PM 60.1 °F - 45.0 °F 57% 29.91 in 10.0 mi WNW 3.5 mph - N/A   Clear
2:56 PM 59.0 °F - 48.9 °F 69% 29.92 in 9.0 mi East 4.6 mph - N/A   Clear
3:56 PM 57.9 °F - 48.9 °F 72% 29.94 in 10.0 mi ESE 4.6 mph - N/A   Clear
4:56 PM 57.0 °F - 48.9 °F 74% 29.95 in 10.0 mi ESE 4.6 mph - N/A   Clear
5:56 PM 51.1 °F - 46.9 °F 86% 29.95 in 10.0 mi ESE 5.8 mph - N/A   Clear
6:56 PM 46.9 °F - 45.0 °F 93% 29.95 in 7.0 mi Calm Calm - N/A   Clear
7:56 PM 44.1 °F 42.5 °F 43.0 °F 96% 29.96 in 3.0 mi SSE 3.5 mph - N/A   Partly Cloudy
8:15 PM 44.6 °F 40.2 °F 42.8 °F 93% 29.96 in 1.8 mi SSE 8.1 mph - N/A   Partly Cloudy
8:20 PM 42.8 °F 39.3 °F 42.8 °F 100% 29.96 in 0.8 mi SSE 5.8 mph - N/A   Mist
8:35 PM 42.8 °F 40.1 °F 42.8 °F 100% 29.96 in 0.5 mi SSE 4.6 mph - N/A Fog Fog
8:49 PM 42.8 °F 41.1 °F 42.8 °F 100% 29.95 in 0.2 mi SSE 3.5 mph - N/A Fog Fog
8:56 PM 43.0 °F 41.3 °F 43.0 °F 100% 29.96 in 0.2 mi SSE 3.5 mph - N/A Fog Fog
9:11 PM 42.8 °F 39.3 °F 42.8 °F 100% 29.96 in 0.5 mi SE 5.8 mph - N/A Fog Fog
9:28 PM 42.8 °F 40.1 °F 42.8 °F 100% 29.97 in 0.2 mi SE 4.6 mph - N/A Fog Fog
9:48 PM 42.8 °F 40.1 °F 42.8 °F 100% 29.97 in 0.5 mi SE 4.6 mph - N/A Fog Fog
9:56 PM 43.0 °F 40.3 °F 43.0 °F 100% 29.98 in 0.8 mi SE 4.6 mph - N/A   Overcast
10:05 PM 42.8 °F 40.1 °F 42.8 °F 100% 29.97 in 1.2 mi SE 4.6 mph - N/A   Overcast
10:16 PM 42.8 °F 39.3 °F 42.8 °F 100% 29.96 in 3.0 mi SE 5.8 mph - N/A   Overcast
10:24 PM 42.8 °F 40.1 °F 42.8 °F 100% 29.96 in 1.5 mi ESE 4.6 mph - N/A   Overcast
10:26 PM 42.8 °F 39.3 °F 42.8 °F 100% 29.96 in 0.8 mi ESE 5.8 mph - N/A   Overcast
10:40 PM 42.8 °F 38.0 °F 42.8 °F 100% 29.96 in 0.5 mi ESE 8.1 mph - N/A Fog Fog
10:52 PM 42.8 °F 38.0 °F 42.8 °F 100% 29.96 in 0.2 mi ESE 8.1 mph - N/A Fog Fog
10:56 PM 43.0 °F 38.8 °F 43.0 °F 100% 29.97 in 0.2 mi ESE 6.9 mph - N/A Fog Fog
11:56 PM 45.0 °F 41.8 °F 45.0 °F 100% 29.96 in 0.2 mi East 5.8 mph - N/A Fog Fog